Location: Mountain View
(37.3861°N, 122.0839°W)
Time: 03:01:58
(UTC-07:00)

Envisat - Visible Passes

Search period start: 26 September 2021 00:00
Search period end: 06 October 2021 00:00
Orbit: 764 x 766 km, 98.2° (Epoch: 25 September)

Date Brightness Start Highest point End Pass type
(mag) Time Alt. Az. Time Alt. Az. Time Alt. Az.
26 Sep 3.0 06:24:38 10° N 06:29:44 81° WNW 06:34:48 10° SSW visible
27 Sep 4.3 05:48:01 10° NNE 05:52:51 43° E 05:57:39 10° S visible
28 Sep 5.7 05:12:16 10° NE 05:15:46 19° E 05:19:16 10° SE visible
29 Sep 3.2 06:13:07 10° NNE 06:18:14 79° ESE 06:23:18 10° S visible
30 Sep 4.8 05:36:42 10° NNE 05:41:18 33° E 05:45:50 10° SSE visible
01 Oct 6.0 05:01:28 10° ENE 05:04:09 14° E 05:06:50 10° ESE visible
02 Oct 3.6 06:01:40 10° NNE 06:06:42 61° E 06:11:42 10° S visible
03 Oct 5.2 05:25:30 10° NE 05:29:42 26° E 05:33:54 10° SSE visible
04 Oct 6.2 04:51:26 10° ENE 04:52:31 11° E 04:53:36 10° ESE visible
04 Oct 3.0 06:26:56 10° N 06:32:01 75° WNW 06:37:05 10° SSW visible
05 Oct 4.1 05:50:16 10° NNE 05:55:10 46° E 06:00:02 10° S visible
